Tracking 31030 objects as of 17-Jul-2025
HD Live streaming from Space Station
objects crossing your sky now

STARLINK-32866

Track STARLINK-32866 now!
10-day predictions
STARLINK-32866 is classified as:


NORAD ID: 62858
Int'l Code: 2025-022E
Perigee: 481.5 km
Apogee: 483.2 km
Inclination: 53.2 °
Period: 94.1 minutes
Semi major axis: 6853 km
RCS: Unknown
Launch date: February 1, 2025
Source: United States (US)
Launch site: AIR FORCE WESTERN TEST RANGE (AFWTR)
Your satellite tracking list
Your tracking list is empty




NASA's NSSDC Master Catalog

Two Line Element Set (TLE):
1 62858U 25022E   25197.18345626  .00013281  00000-0  45966-3 0  9997
2 62858  53.1601 147.9023 0001209  76.1592 283.9543 15.30204488 25696
Source of the keplerian elements: AFSPC